Location: Bartlow
(52.0833°N, 0.3167°E)
Time: 18:25:08
(UTC+00:00)

CZ-2C R/B - Pass Details

Date: 26 September 2023
Orbit: 783 x 869 km, 98.3° (Epoch: 07 December)

Event Time Altitude Azimuth Distance (km) Brightness Sun altitude
Exits shadow 03:09:31 52° 292° (WNW) 978 2.7 -24.3°
Drops below altitude 10° 03:14:00 10° 339° (NNW) 2,387 5.2 -23.7°
Sets 03:16:25 0° 343° (NNW) 3,333 6.0 -23.4°
